Location: Unspecified
(43.3830°N, 0.0000°E)
Time: 20:36:08
(UTC+00:00)

A-11 Canister half - All Passes

Search period start: 17 June 2019 00:00
Search period end: 27 June 2019 00:00
Orbit: 1516 x 1684 km, 47.2° (Epoch: 16 June)

Date Brightness Start Highest point End Pass type
(mag) Time Alt. Az. Time Alt. Az. Time Alt. Az.
17 Jun - 09:20:01 10° SSE 09:25:35 17° SE 09:31:05 10° E daylight
17 Jun - 11:19:26 10° SW 11:28:59 55° SE 11:38:15 10° ENE daylight
17 Jun - 13:23:55 10° WSW 13:33:48 80° NNW 13:43:18 10° ENE daylight
17 Jun - 15:29:45 10° WNW 15:39:24 73° N 15:48:45 10° E daylight
17 Jun - 17:35:04 10° WNW 17:44:27 69° SSW 17:53:36 10° SE daylight
17 Jun - 19:41:10 10° W 19:48:03 24° SW 19:54:52 10° S daylight
18 Jun - 08:57:43 10° SSE 09:02:47 15° SE 09:07:45 10° E daylight
18 Jun - 10:56:36 10° SSW 11:06:06 52° SE 11:15:18 10° ENE daylight
18 Jun - 13:00:57 10° WSW 13:10:50 82° NNW 13:20:23 10° ENE daylight
18 Jun - 15:06:45 10° WNW 15:16:27 72° N 15:25:48 10° E daylight
18 Jun - 17:12:07 10° WNW 17:21:34 72° SSW 17:30:45 10° SE daylight
18 Jun - 19:18:05 10° W 19:25:14 25° SW 19:32:19 10° S daylight
19 Jun - 08:35:33 10° SSE 08:39:58 14° ESE 08:44:20 10° E daylight
19 Jun - 10:33:46 10° SSW 10:43:13 50° SE 10:52:22 10° ENE daylight
19 Jun - 12:37:57 10° WSW 12:47:53 83° NNW 12:57:28 10° ENE daylight
19 Jun - 14:43:47 10° W 14:53:29 72° N 15:02:52 10° E daylight
19 Jun - 16:49:10 10° WNW 16:58:40 75° SSW 17:07:54 10° SE daylight
19 Jun - 18:55:01 10° WNW 19:02:26 27° SW 19:09:46 10° S daylight
20 Jun - 08:13:33 10° SE 08:17:10 12° ESE 08:20:45 10° E daylight
20 Jun - 10:10:59 10° SSW 10:20:20 47° SE 10:29:26 10° ENE daylight
20 Jun - 12:14:59 10° WSW 12:24:56 85° NNW 12:34:33 10° ENE daylight
20 Jun - 14:20:47 10° W 14:30:32 71° N 14:39:56 10° E daylight
20 Jun - 16:26:14 10° WNW 16:35:47 77° SSW 16:45:03 10° SE daylight
20 Jun - 18:31:57 10° WNW 18:39:37 29° SW 18:47:11 10° S daylight
21 Jun - 07:51:51 10° SE 07:54:22 11° ESE 07:56:51 10° ESE daylight
21 Jun - 09:48:11 10° SSW 09:57:28 45° SE 10:06:29 10° ENE daylight
21 Jun - 11:52:00 10° WSW 12:02:00 87° NNW 12:11:38 10° ENE daylight
21 Jun - 13:57:47 10° W 14:07:34 71° N 14:16:59 10° E daylight
21 Jun - 16:03:16 10° WNW 16:12:53 80° SSW 16:22:10 10° ESE daylight
21 Jun - 18:08:55 10° WNW 18:16:48 31° SW 18:24:34 10° S daylight
22 Jun - 09:25:24 10° SSW 09:34:35 42° SE 09:43:31 10° ENE daylight
22 Jun - 11:29:02 10° WSW 11:39:03 89° NNW 11:48:44 10° ENE daylight
22 Jun - 13:34:48 10° W 13:44:36 71° N 13:54:03 10° E daylight
22 Jun - 15:40:19 10° WNW 15:49:58 83° SSW 15:59:17 10° ESE daylight
22 Jun - 17:45:53 10° WNW 17:53:59 34° SW 18:01:56 10° SSE daylight
23 Jun - 09:02:38 10° SSW 09:11:43 40° SE 09:20:33 10° ENE daylight
23 Jun - 11:06:05 10° WSW 11:16:07 88° SSE 11:25:48 10° ENE daylight
23 Jun - 13:11:47 10° W 13:21:38 71° N 13:31:07 10° E daylight
23 Jun - 15:17:21 10° WNW 15:27:03 85° SSW 15:36:25 10° ESE daylight
23 Jun - 17:22:52 10° WNW 17:31:10 36° SW 17:39:17 10° SSE daylight
24 Jun - 08:39:54 10° SSW 08:48:51 38° SE 08:57:34 10° ENE daylight
24 Jun - 10:43:06 10° WSW 10:53:10 86° SSE 11:02:53 10° ENE daylight
24 Jun - 12:48:47 10° W 12:58:39 71° N 13:08:10 10° E daylight
24 Jun - 14:54:24 10° WNW 15:04:08 88° SSW 15:13:32 10° ESE daylight
24 Jun - 16:59:52 10° WNW 17:08:20 38° SW 17:16:37 10° SSE daylight
25 Jun - 08:17:11 10° SSW 08:25:59 36° SE 08:34:35 10° ENE daylight
25 Jun - 10:20:10 10° WSW 10:30:14 84° SSE 10:39:58 10° ENE daylight
25 Jun - 12:25:47 10° W 12:35:41 71° N 12:45:14 10° E daylight
25 Jun - 14:31:26 10° WNW 14:41:12 90° N 14:50:38 10° ESE daylight
25 Jun - 16:36:52 10° WNW 16:45:29 41° SW 16:53:55 10° SSE daylight
26 Jun - 07:54:29 10° SSW 08:03:07 34° SE 08:11:34 10° ENE daylight
26 Jun - 09:57:13 10° WSW 10:07:18 81° SSE 10:17:03 10° ENE daylight
26 Jun - 12:02:46 10° W 12:12:43 71° N 12:22:17 10° E daylight
26 Jun - 14:08:28 10° WNW 14:18:17 88° NNE 14:27:44 10° ESE daylight
26 Jun - 16:13:51 10° WNW 16:22:40 43° SW 16:31:13 10° SSE daylight
